This is the latest recevied weather packets stored in our database for station/object KC7UNY-13. If no packets are shown the sender has not sent any weather packets the latest 10 day(s).
| Time | Temp. | Humidity | Pressure | Rain* | Wind** | Luminosity | Snow |
|---|---|---|---|---|---|---|---|
| 1778034445 | 22.78° C | 28% | 1010.6 hPa | 0 mm | - | 0 W/m² | - |
| 1778034143 | 22.78° C | 28% | 1010.7 hPa | 0 mm | - | 1 W/m² | - |
| 1778033841 | 22.78° C | 28% | 1010.4 hPa | 0 mm | - | 1 W/m² | - |
| 1778033538 | 22.78° C | 28% | 1010.4 hPa | 0 mm | - | 3 W/m² | - |
| 1778033234 | 22.78° C | 28% | 1010.3 hPa | 0 mm | - | 4 W/m² | - |
| 1778032933 | 22.78° C | 29% | 1010.2 hPa | 0 mm | - | 7 W/m² | - |
| 1778032630 | 23.33° C | 28% | 1010.1 hPa | 0 mm | - | 10 W/m² | - |
| 1778032327 | 23.33° C | 28% | 1010.1 hPa | 0 mm | - | 13 W/m² | - |
| 1778032024 | 23.33° C | 28% | 1010.2 hPa | 0 mm | - | 16 W/m² | - |
| 1778031720 | 23.33° C | 28% | 1010.3 hPa | 0 mm | - | 21 W/m² | - |
| 1778031418 | 23.33° C | 28% | 1010.2 hPa | 0 mm | - | 26 W/m² | - |
| 1778031114 | 23.89° C | 28% | 1010.1 hPa | 0 mm | - | 30 W/m² | - |
| 1778030811 | 23.89° C | 29% | 1010.1 hPa | 0 mm | - | 29 W/m² | - |
| 1778030508 | 23.89° C | 28% | 1009.9 hPa | 0 mm | - | 29 W/m² | - |
| 1778030205 | 23.89° C | 28% | 1010.1 hPa | 0 mm | - | 41 W/m² | - |
| 1778029901 | 23.89° C | 29% | 1009.9 hPa | 0 mm | - | 49 W/m² | - |
| 1778029600 | 23.89° C | 29% | 1009.9 hPa | 0 mm | - | 46 W/m² | - |
| 1778029297 | 23.89° C | 29% | 1009.9 hPa | 0 mm | - | 83 W/m² | - |
| 1778028993 | 23.89° C | 29% | 1010 hPa | 0 mm | - | 96 W/m² | - |
| 1778028690 | 23.89° C | 29% | 1009.9 hPa | 0 mm | - | 107 W/m² | - |
| 1778028387 | 24.44° C | 28% | 1009.9 hPa | 0 mm | - | 44 W/m² | - |
| 1778028084 | 25° C | 28% | 1009.7 hPa | 0 mm | - | 125 W/m² | - |
| 1778027780 | 25° C | 28% | 1009.7 hPa | 0 mm | - | 148 W/m² | - |
| 1778027476 | 25° C | 28% | 1009.7 hPa | 0 mm | - | 166 W/m² | - |
| 1778027172 | 25° C | 28% | 1009.8 hPa | 0 mm | - | 169 W/m² | - |
* Rain latest hour (hover to see other rain measurements)
** Current wind speed in m/s (hover to see current wind gust speed)